Location: Unspecified
(0.0000°N, 0.0000°E)
Time: 18:02:53
(UTC+00:00)

SRMSAT - Pass Details

Date: 25 July 2019
Orbit: 848 x 865 km, 20.0° (Epoch: 07 December)

Event Time Altitude Azimuth Distance (km) Brightness Sun altitude
Exits shadow 04:04:18 45° 154° (SSE) 1,134 ? -28.6°
Drops below altitude 10° 04:08:42 10° 123° (ESE) 2,462 ? -27.6°
Sets 04:11:19 0° 119° (ESE) 3,397 ? -27.0°
